1497474000.21,57136,18.38,73916.3,-2.33,-32.23,-32.57,0,*57
1497474001.45,57137,18.38,73916.0,-2.31,-32.19,-32.39,0,*55
1497474002.71,57138,18.38,73914.5,-2.33,-32.13,-32.45,0,*59
1497474003.97,57139,18.38,73916.8,-2.33,-32.23,-32.75,0,*58
1497474005.23,57140,18.38,73914.3,-2.33,-32.23,-32.45,0,*55
1497474006.49,57141,18.38,73916.0,-2.33,-31.79,-32.29,0,*52
1497474007.73,57142,18.38,73918.0,-2.33,-32.13,-32.39,0,*5F
1497474009.01,57143,18.38,73912.5,-2.33,-32.29,-32.75,0,*5F
1497474010.3,57144,18.38,73916.0,-2.33,-32.29,-32.63,0,*5F
1497474011.52,57145,18.38,73912.0,-2.33,-32.13,-32.57,0,*50
1497474012.76,57146,18.38,73912.5,-2.31,-31.85,-32.23,0,*5E
1497474014.05,57147,18.38,73918.5,-2.33,-32.29,-32.45,0,*58
1497474015.28,57148,18.38,73912.5,-2.33,-32.13,-32.39,0,*55
1497474016.55,57149,18.38,73918.8,-2.33,-32.07,-32.39,0,*51
1497474017.77,57150,18.38,73916.3,-2.31,-32.01,-32.35,0,*51
1497474019.04,57151,18.38,73912.5,-2.33,-32.07,-32.39,0,*58
1497474020.3,57152,18.38,73916.5,-2.33,-32.07,-32.57,0,*53
1497474021.56,57153,18.38,73914.8,-2.33,-32.07,-32.39,0,*5A
1497474022.79,57154,18.38,73916.5,-2.33,-32.23,-32.57,0,*53
1497474024.08,57155,18.38,73916.3,-2.33,-32.07,-32.45,0,*57
1497474025.34,57156,18.38,73916.3,-2.33,-32.23,-32.63,0,*56
1497474026.62,57157,18.38,73918.3,-2.33,-32.29,-32.75,0,*5A
1497474027.91,57158,18.38,73916.8,-2.33,-32.07,-32.45,0,*5A
1497474029.15,57159,18.38,73914.0,-2.33,-32.39,-32.91,0,*5F
1497474030.41,57160,18.38,73914.5,-2.33,-32.13,-32.45,0,*54
1497474031.68,57161,18.38,73912.0,-2.33,-31.95,-32.39,0,*53
1497474032.97,57162,18.38,73906.5,-2.33,-31.95,-32.45,0,*5B
1497474034.2,57163,18.38,73910.5,-2.33,-32.23,-32.57,0,*57
1497474035.46,57164,18.38,73908.8,-2.33,-31.67,-31.95,0,*5E
1497474036.69,57165,18.38,73906.5,-2.33,-31.79,-32.13,0,*5D
1497474037.95,57166,18.38,73914.5,-2.33,-32.13,-32.45,0,*52
1497474039.2,57167,18.38,73910.5,-2.31,-32.19,-32.51,0,*5E
1497474040.43,57168,18.38,73910.0,-2.33,-32.13,-32.39,0,*57
1497474041.67,57169,18.38,73908.3,-2.33,-32.13,-32.57,0,*5E
1497474042.92,57170,18.38,73914.0,-2.33,-32.23,-32.45,0,*56
1497474044.18,57171,18.38,73914.8,-2.33,-32.23,-32.63,0,*53
1497474045.45,57172,18.38,73908.8,-2.33,-32.07,-32.39,0,*59
1497474046.73,57173,18.38,73914.5,-2.33,-31.91,-32.29,0,*55
1497474047.96,57174,18.38,73914.8,-2.33,-32.23,-32.57,0,*51
1497474049.21,57175,18.38,73910.3,-2.33,-32.23,-32.63,0,*57
1497474050.48,57176,18.38,73914.0,-2.35,-32.07,-32.45,0,*50
1497474051.73,57177,18.38,73914.3,-2.33,-32.23,-32.63,0,*55
1497474053.02,57178,18.38,73912.0,-2.33,-32.07,-32.29,0,*52
1497474054.3,57179,18.38,73914.0,-2.33,-31.91,-32.29,0,*5F
1497474055.57,57180,18.38,73910.5,-2.33,-31.79,-32.07,0,*53
1497474056.83,57181,18.38,73910.0,-2.33,-32.39,-32.63,0,*57
1497474058.12,57182,18.38,73914.0,-2.33,-32.07,-32.45,0,*5D
1497474059.41,57183,18.38,73914.5,-2.33,-32.29,-32.75,0,*53
1497474060.7,57184,18.38,73912.8,-2.33,-32.07,-32.45,0,*5B
1497474061.96,57185,18.38,73914.3,-2.33,-32.07,-32.57,0,*59
1497474063.19,57186,18.38,73914.0,-2.35,-32.39,-32.79,0,*5D
1497474064.47,57187,18.38,73912.8,-2.33,-32.29,-32.63,0,*50
1497474065.67,57188,18.38,73916.8,-2.35,-32.23,-32.57,0,*54
1497474066.91,57189,18.38,73914.8,-2.35,-32.13,-32.45,0,*55
1497474068.14,57190,18.38,73918.0,-2.35,-32.13,-32.45,0,*5D
1497474069.35,57191,18.38,73914.3,-2.35,-32.13,-32.57,0,*5F
1497474070.56,57192,18.38,73912.0,-2.35,-32.13,-32.39,0,*54
1497474071.77,57193,18.38,73914.3,-2.35,-32.13,-32.39,0,*55
1497474072.97,57194,18.38,73912.0,-2.35,-32.23,-32.57,0,*59
1497474074.23,57195,18.38,73914.0,-2.35,-32.29,-32.63,0,*55
1497474075.43,57196,18.38,73916.8,-2.35,-32.23,-32.57,0,*5B
1497474076.66,57197,18.38,73912.5,-2.35,-32.13,-32.45,0,*5A
1497474077.91,57198,18.38,73916.3,-2.35,-32.07,-32.39,0,*5B
1497474079.17,57199,18.38,73912.5,-2.35,-31.95,-32.45,0,*59
1497474080.4,57200,18.38,73914.8,-2.35,-32.39,-32.63,0,*5B
1497474081.63,57201,18.38,73918.0,-2.35,-32.23,-32.63,0,*51
1497474082.86,57202,18.38,73914.0,-2.35,-32.29,-32.57,0,*5F
1497474084.09,57203,18.38,73914.3,-2.35,-32.23,-32.63,0,*53
1497474085.34,57204,18.38,73916.0,-2.35,-32.29,-32.63,0,*5E
1497474086.59,57205,18.38,73914.0,-2.35,-32.07,-32.39,0,*5C
1497474087.85,57206,18.38,73916.5,-2.37,-32.19,-32.69,0,*57
1497474089.12,57207,18.38,73914.3,-2.35,-31.95,-32.45,0,*5D
1497474090.4,57208,18.38,73912.0,-2.37,-32.19,-32.63,0,*53
1497474091.62,57209,18.38,73912.0,-2.35,-32.13,-32.39,0,*55
1497474092.88,57210,18.38,73916.5,-2.37,-32.13,-32.63,0,*50
1497474094.14,57211,18.38,73914.8,-2.35,-31.57,-32.07,0,*52
1497474095.41,57212,18.38,73912.5,-2.37,-31.73,-32.13,0,*50
1497474096.64,57213,18.38,73912.8,-2.35,-31.91,-32.13,0,*5F
1497474097.88,57214,18.38,73914.8,-2.37,-31.45,-31.79,0,*5C
1497474099.13,57215,18.38,73912.3,-2.35,-31.91,-32.29,0,*50
1497474100.4,57216,18.38,73912.8,-2.33,-31.95,-32.39,0,*50
1497474101.64,57217,18.38,73914.8,-2.35,-31.95,-32.23,0,*5C
1497474102.87,57218,18.38,73914.8,-2.35,-32.13,-32.63,0,*5A
1497474104.1,57219,18.38,73914.0,-2.35,-32.23,-32.63,0,*58
1497474105.34,57220,18.38,73916.8,-2.35,-32.39,-32.85,0,*51
1497474106.6,57221,18.38,73912.0,-2.35,-32.29,-32.75,0,*5E
1497474107.84,57222,18.38,73914.8,-2.35,-32.19,-32.39,0,*56
1497474109.1,57223,18.38,73914.5,-2.37,-32.13,-32.45,0,*54
1497474110.34,57224,18.38,73918.5,-2.37,-32.35,-32.69,0,*59
1497474111.57,57225,18.38,73914.5,-2.35,-32.13,-32.45,0,*50
1497474112.81,57226,18.38,73912.0,-2.37,-32.01,-32.35,0,*55
1497474114.04,57227,18.38,73914.3,-2.35,-32.35,-32.63,0,*52
1497474115.28,57228,18.38,73912.8,-2.35,-32.07,-32.39,0,*53
1497474116.57,57229,18.38,73914.3,-2.37,-32.19,-32.63,0,*50
1497474117.78,57230,18.38,73912.5,-2.35,-32.39,-32.91,0,*55
1497474119.04,57231,18.38,73914.3,-2.37,-32.13,-32.45,0,*57
1497474120.31,57232,18.38,73914.3,-2.37,-32.29,-32.51,0,*58
1497474121.56,57233,18.38,73918.3,-2.35,-32.29,-32.63,0,*5A
1497474122.77,57234,18.38,73916.8,-2.35,-32.35,-32.69,0,*5A
1497474124.03,57235,18.38,73918.5,-2.37,-32.35,-32.79,0,*58
1497474125.31,57236,18.38,73914.5,-2.37,-32.29,-32.63,0,*5D
1497474126.57,57237,18.38,73918.0,-2.37,-32.29,-32.51,0,*5D
1497474127.81,57238,18.38,73916.3,-2.37,-32.35,-32.69,0,*54
1497474129.07,57239,18.38,73916.8,-2.37,-32.45,-32.69,0,*52
1497474130.31,57240,18.38,73916.8,-2.35,-31.79,-32.07,0,*5A
1497474131.58,57241,18.38,73916.5,-2.37,-32.19,-32.51,0,*5F
1497474132.86,57242,18.38,73916.3,-2.37,-32.29,-32.63,0,*5E
1497474134.15,57243,18.38,73916.3,-2.37,-31.95,-32.29,0,*55
1497474135.43,57244,18.38,73918.3,-2.37,-32.19,-32.63,0,*5B
1497474136.69,57245,18.38,73914.8,-2.37,-32.35,-32.85,0,*5C
1497474137.98,57246,18.38,73914.0,-2.37,-32.45,-32.79,0,*5B
1497474139.19,57247,18.38,73914.8,-2.39,-32.23,-32.69,0,*55
1497474140.41,57248,18.38,73914.5,-2.39,-32.23,-32.69,0,*5A
1497474141.67,57249,18.38,73914.8,-2.41,-32.39,-32.75,0,*52
1497474142.92,57250,18.38,73916.3,-2.39,-32.51,-32.85,0,*54
1497474144.15,57251,18.38,73914.3,-2.39,-32.35,-32.75,0,*58
1497474145.4,57252,18.38,73914.5,-2.39,-32.19,-32.39,0,*5D
1497474146.6,57253,18.38,73914.5,-2.39,-32.23,-32.57,0,*5D
1497474147.84,57254,18.38,73912.5,-2.39,-32.39,-32.75,0,*51
1497474149.06,57255,18.38,73912.0,-2.39,-32.01,-32.35,0,*5F
1497474150.3,57256,18.38,73916.0,-2.39,-32.35,-32.75,0,*5F
1497474151.54,57257,18.38,73914.3,-2.39,-32.51,-32.75,0,*5C
1497474152.78,57258,18.38,73914.0,-2.41,-32.35,-32.69,0,*53
1497474154.0,57259,18.38,73914.0,-2.39,-32.01,-32.39,0,*5F
1497474155.24,57260,18.38,73914.3,-2.39,-32.07,-32.39,0,*53
1497474156.48,57261,18.38,73912.3,-2.39,-32.35,-32.75,0,*5B
1497474157.74,57262,18.38,73914.0,-2.37,-32.35,-32.79,0,*5A
1497474159.0,57263,18.38,73912.0,-2.41,-32.51,-32.85,0,*5B
1497474160.24,57264,18.38,73914.3,-2.39,-32.39,-32.75,0,*52
1497474161.46,57265,18.38,73916.5,-2.39,-32.23,-32.51,0,*5E
1497474162.7,57266,18.38,73908.0,-2.39,-32.19,-32.69,0,*5F
1497474163.91,57267,18.38,73912.5,-2.39,-32.35,-32.69,0,*50
1497474165.16,57268,18.38,73916.3,-2.39,-32.39,-32.75,0,*5E
1497474166.43,57269,18.38,73912.5,-2.39,-31.85,-32.19,0,*51
1497474167.65,57270,18.38,73914.3,-2.39,-32.01,-32.23,0,*5F
1497474168.85,57271,18.38,73912.8,-2.39,-32.23,-32.57,0,*5D
1497474170.14,57272,18.38,73908.8,-2.41,-31.91,-32.19,0,*51
1497474171.35,57273,18.38,73914.3,-2.39,-32.23,-32.69,0,*52
1497474172.61,57274,18.38,73912.3,-2.41,-32.39,-32.85,0,*53
1497474173.85,57275,18.38,73912.5,-2.39,-32.35,-32.75,0,*5E
1497474175.07,57276,18.38,73914.5,-2.39,-32.51,-32.91,0,*55
1497474176.3,57277,18.38,73912.3,-2.41,-32.57,-32.91,0,*5D
1497474177.57,57278,18.38,73916.3,-2.41,-32.39,-32.85,0,*5F
1497474178.79,57279,18.38,73912.0,-2.41,-32.23,-32.57,0,*5A
1497474180.02,57280,18.38,73914.5,-2.39,-32.19,-32.57,0,*5A
1497474181.27,57281,18.38,73914.8,-2.39,-32.39,-32.75,0,*59
1497474182.51,57282,18.38,73914.5,-2.39,-32.35,-32.75,0,*56
1497474183.75,57283,18.38,73914.8,-2.39,-32.07,-32.35,0,*52
1497474184.95,57284,18.38,73914.5,-2.39,-32.23,-32.57,0,*57
1497474186.22,57285,18.38,73914.5,-2.41,-32.19,-32.39,0,*58
1497474187.48,57286,18.38,73914.8,-2.41,-32.19,-32.39,0,*5B
1497474188.74,57287,18.38,73914.8,-2.41,-32.07,-32.39,0,*55
1497474189.97,57288,18.38,73912.8,-2.41,-32.23,-32.57,0,*54
1497474191.18,57289,18.38,73916.5,-2.39,-32.01,-32.35,0,*5E
1497474192.4,57290,18.38,73916.8,-2.39,-32.23,-32.69,0,*5F
1497474193.66,57291,18.38,73914.5,-2.41,-32.39,-32.75,0,*57
1497474194.88,57292,18.38,73916.5,-2.39,-32.01,-32.35,0,*54
1497474196.1,57293,18.38,73918.3,-2.39,-32.23,-32.51,0,*57
1497474197.36,57294,18.38,73912.5,-2.41,-32.51,-32.75,0,*5C
1497474198.6,57295,18.38,73912.5,-2.39,-32.07,-32.35,0,*55
1497474199.85,57296,18.38,73914.5,-2.39,-32.19,-32.51,0,*5B
1497474201.06,57297,18.38,73918.8,-2.39,-32.35,-32.69,0,*5F
1497474202.27,57298,18.38,73916.3,-2.39,-32.51,-32.91,0,*55
1497474203.51,57299,18.38,73914.5,-2.41,-32.39,-32.69,0,*52
1497474204.72,57300,18.38,73914.8,-2.39,-32.23,-32.57,0,*5A
1497474205.95,57301,18.38,73916.0,-2.41,-32.51,-32.91,0,*5B
1497474207.21,57302,18.38,73916.8,-2.41,-32.51,-32.85,0,*5D
1497474208.48,57303,18.38,73918.0,-2.41,-32.51,-32.75,0,*53
1497474209.74,57304,18.38,73918.5,-2.41,-32.51,-32.75,0,*54
1497474211.01,57305,18.38,73918.3,-2.41,-32.51,-32.75,0,*55
1497474212.24,57306,18.38,73916.5,-2.41,-32.35,-32.69,0,*59
1497474213.51,57307,18.38,73912.3,-2.41,-32.07,-32.51,0,*52
1497474214.73,57308,18.38,73916.0,-2.41,-32.23,-32.57,0,*5D
1497474215.97,57309,18.38,73914.8,-2.41,-32.23,-32.51,0,*5A
1497474217.25,57310,18.38,73914.8,-2.41,-31.85,-32.19,0,*51
1497474218.49,57311,18.38,73914.0,-2.41,-32.23,-32.51,0,*53
1497474219.71,57312,18.38,73916.3,-2.41,-32.35,-32.57,0,*51
1497474220.91,57313,18.38,73914.0,-2.39,-32.35,-32.57,0,*5F
1497474222.18,57314,18.38,73914.5,-2.41,-32.19,-32.51,0,*5F
1497474223.41,57315,18.38,73916.5,-2.41,-32.35,-32.69,0,*5B
1497474224.67,57316,18.38,73918.0,-2.41,-32.51,-32.75,0,*57
1497474225.94,57317,18.38,73918.3,-2.41,-32.51,-32.85,0,*59
1497474227.2,57318,18.38,73918.8,-2.41,-32.19,-32.51,0,*53
1497474228.47,57319,18.38,73916.3,-2.41,-32.07,-32.39,0,*53
1497474229.69,57320,18.38,73916.3,-2.41,-32.23,-32.57,0,*57
1497474230.95,57321,18.38,73916.0,-2.41,-32.35,-32.75,0,*51
1497474232.19,57322,18.38,73914.5,-2.41,-32.01,-32.23,0,*56
1497474233.44,57323,18.38,73916.5,-2.41,-32.19,-32.57,0,*5D
1497474234.7,57324,18.38,73918.5,-2.41,-32.39,-32.75,0,*58
1497474235.94,57325,18.38,73918.8,-2.39,-32.35,-32.75,0,*5A
1497474237.2,57326,18.38,73918.0,-2.41,-32.19,-32.57,0,*58
1497474238.43,57327,18.38,73914.0,-2.41,-32.35,-32.69,0,*5A
1497474239.67,57328,18.38,73912.0,-2.43,-32.39,-32.75,0,*56
1497474240.91,57329,18.38,73914.0,-2.43,-32.57,-32.79,0,*53
1497474242.15,57330,18.38,73912.3,-2.43,-32.39,-32.75,0,*5F
1497474243.41,57331,18.38,73916.3,-2.43,-32.29,-32.75,0,*5F
1497474244.61,57332,18.38,73914.8,-2.43,-32.23,-32.57,0,*56
1497474245.82,57333,18.38,73916.0,-2.43,-32.13,-32.39,0,*5C
1497474247.07,57334,18.38,73916.5,-2.39,-32.07,-32.35,0,*5F
1497474248.3,57335,18.38,73918.0,-2.43,-32.13,-32.45,0,*51
1497474249.57,57336,18.38,73918.8,-2.43,-32.07,-32.45,0,*57
1497474250.8,57337,18.38,73918.0,-2.43,-31.95,-32.23,0,*5E
1497474252.06,57338,18.38,73914.8,-2.41,-31.91,-32.23,0,*57
1497474253.32,57339,18.38,73914.8,-2.41,-32.19,-32.39,0,*5E
1497474254.56,57340,18.38,73914.0,-2.41,-32.35,-32.69,0,*5B
1497474255.79,57341,18.38,73912.8,-2.41,-32.23,-32.69,0,*5D
1497474257.05,57342,18.38,73912.5,-2.41,-32.39,-32.75,0,*58
1497474258.32,57343,18.38,73912.5,-2.41,-32.51,-32.75,0,*57
1497474259.55,57344,18.38,73920.5,-2.41,-32.51,-32.91,0,*5A
1497474260.78,57345,18.38,73916.8,-2.41,-32.35,-32.69,0,*5E
1497474262.02,57346,18.38,73916.3,-2.43,-32.39,-32.63,0,*59
1497474263.28,57347,18.38,73918.5,-2.43,-32.45,-32.79,0,*58
1497474264.52,57348,18.38,73916.0,-2.43,-32.39,-32.63,0,*57
1497474265.77,57349,18.38,73912.5,-2.43,-32.29,-32.63,0,*57
1497474267.0,57350,18.38,73912.5,-2.43,-32.39,-32.63,0,*5E
1497474268.25,57351,18.38,73914.8,-2.43,-32.57,-32.75,0,*50
1497474269.5,57352,18.38,73918.0,-2.45,-32.29,-32.75,0,*5C
1497474270.74,57353,18.38,73916.5,-2.43,-32.39,-32.79,0,*56
1497474271.98,57354,18.38,73916.5,-2.43,-32.45,-32.91,0,*5C
1497474273.18,57355,18.38,73918.0,-2.45,-32.23,-32.57,0,*51
1497474274.41,57356,18.38,73914.3,-2.45,-32.39,-32.75,0,*59
1497474275.68,57357,18.38,73916.0,-2.43,-32.45,-32.75,0,*55
1497474276.89,57358,18.38,73918.0,-2.43,-32.57,-32.91,0,*53
1497474278.13,57359,18.38,73916.3,-2.43,-32.57,-32.79,0,*54
1497474279.36,57360,18.38,73916.3,-2.45,-32.39,-32.79,0,*50
1497474280.6,57361,18.38,73918.5,-2.45,-32.39,-32.75,0,*5D
1497474281.84,57362,18.38,73916.8,-2.45,-32.57,-32.79,0,*5A
1497474283.05,57363,18.38,73922.0,-2.43,-32.57,-32.91,0,*5B
1497474284.28,57364,18.38,73920.8,-2.45,-32.23,-32.63,0,*54
1497474285.51,57365,18.38,73920.5,-2.43,-32.39,-32.63,0,*58
1497474286.77,57366,18.38,73922.3,-2.45,-32.29,-32.75,0,*5B
1497474288.01,57367,18.38,73920.0,-2.45,-32.07,-32.39,0,*5E
1497474289.21,57368,18.38,73920.5,-2.45,-32.23,-32.39,0,*57
1497474290.44,57369,18.38,73920.3,-2.43,-32.23,-32.63,0,*5F
1497474291.67,57370,18.38,73920.3,-2.43,-32.23,-32.63,0,*57
1497474292.91,57371,18.38,73920.5,-2.45,-32.57,-32.79,0,*58
1497474294.11,57372,18.38,73920.3,-2.43,-32.13,-32.57,0,*51
1497474295.33,57373,18.38,73918.0,-2.45,-32.29,-32.57,0,*5F
1497474296.57,57374,18.38,73920.3,-2.45,-32.13,-32.45,0,*52
1497474297.82,57375,18.38,73920.0,-2.45,-32.07,-32.29,0,*5C
1497474299.06,57376,18.38,73920.5,-2.43,-32.13,-32.45,0,*56
1497474300.29,57377,18.38,73920.0,-2.45,-31.85,-32.13,0,*5E
1497474301.49,57378,18.38,73920.8,-2.43,-32.13,-32.57,0,*5B
1497474302.72,57379,18.38,73920.5,-2.45,-32.23,-32.45,0,*5C
1497474303.93,57380,18.31,73918.0,-2.43,-32.13,-32.57,0,*5C
1497474305.13,57381,18.38,73922.0,-2.45,-32.13,-32.39,0,*53
1497474306.37,57382,18.38,73918.0,-2.43,-31.67,-32.07,0,*5B
1497474307.63,57383,18.38,73918.5,-2.43,-31.91,-32.29,0,*5F
1497474308.87,57384,18.38,73922.0,-2.45,-32.07,-32.39,0,*53
1497474310.12,57385,18.38,73920.5,-2.45,-31.91,-32.29,0,*5F
1497474311.38,57386,18.38,73926.3,-2.41,-31.91,-32.23,0,*52
1497474312.64,57387,18.38,73922.8,-2.43,-32.29,-32.75,0,*52
1497474313.88,57388,18.38,73922.0,-2.43,-32.39,-32.75,0,*5C
1497474315.11,57389,18.38,73920.8,-2.43,-32.45,-32.91,0,*5C
1497474316.37,57390,18.38,73922.0,-2.45,-32.29,-32.75,0,*52
1497474317.61,57391,18.38,73916.8,-2.43,-32.39,-32.75,0,*54
1497474318.85,57392,18.38,73922.3,-2.41,-32.23,-32.69,0,*53
1497474320.1,57393,18.38,73922.0,-2.41,-31.91,-32.23,0,*56
1497474321.34,57394,18.38,73922.0,-2.41,-32.23,-32.69,0,*55
1497474322.55,57395,18.38,73922.8,-2.43,-32.39,-32.91,0,*5A
1497474323.79,57396,18.38,73926.3,-2.43,-32.57,-32.79,0,*57
1497474325.03,57397,18.38,73920.5,-2.43,-32.45,-32.91,0,*53
1497474326.29,57398,18.38,73924.5,-2.43,-32.45,-32.79,0,*5A
1497474327.55,57399,18.38,73924.5,-2.43,-31.95,-32.29,0,*50
1497474328.81,57400,18.38,73922.3,-2.43,-31.95,-32.45,0,*5D
1497474330.05,57401,18.38,73924.5,-2.43,-31.91,-32.23,0,*58
1497474331.29,57402,18.31,73920.0,-2.45,-32.07,-32.39,0,*5A
1497474332.55,57403,18.38,73922.5,-2.41,-32.19,-32.51,0,*5E
1497474333.79,57404,18.38,73926.8,-2.43,-32.23,-32.75,0,*54
1497474334.99,57405,18.38,73926.8,-2.43,-32.23,-32.57,0,*55
1497474336.23,57406,18.38,73922.8,-2.43,-32.13,-32.45,0,*56
1497474337.48,57407,18.38,73924.0,-2.43,-31.91,-32.29,0,*54
1497474338.72,57408,18.38,73924.5,-2.43,-31.85,-32.23,0,*54
1497474339.99,57409,18.38,73922.8,-2.43,-31.95,-32.45,0,*54
1497474341.21,57410,18.38,73920.8,-2.39,-32.01,-32.39,0,*54
1497474342.46,57411,18.38,73912.0,-2.41,-32.19,-32.57,0,*5B
1497474343.72,57412,18.38,73912.5,-2.41,-32.07,-32.57,0,*57
1497474344.96,57413,18.38,73914.8,-2.39,-32.35,-32.75,0,*58
1497474346.22,57414,18.38,73914.3,-2.41,-32.39,-32.85,0,*53
1497474347.48,57415,18.38,73912.5,-2.41,-32.39,-32.85,0,*52
1497474348.74,57416,18.38,73908.3,-2.41,-32.35,-32.85,0,*5D
1497474349.99,57417,18.31,73908.3,-2.41,-32.35,-32.85,0,*5C
1497474351.25,57418,18.38,73914.8,-2.43,-32.29,-32.75,0,*53
1497474352.52,57419,18.38,73918.5,-2.41,-32.07,-32.51,0,*5A
1497474353.75,57420,18.38,73918.3,-2.41,-32.23,-32.69,0,*5D
1497474355.0,57421,18.31,73912.0,-2.39,-32.19,-32.69,0,*5A
1497474356.26,57422,18.38,73918.8,-2.41,-32.07,-32.69,0,*59
1497474357.53,57423,18.38,73918.0,-2.41,-32.07,-32.51,0,*53
1497474358.79,57424,18.38,73912.5,-2.41,-32.35,-32.75,0,*53
1497474360.05,57425,18.38,73914.0,-2.41,-32.23,-32.75,0,*55
1497474361.27,57426,18.38,73912.3,-2.39,-32.01,-32.39,0,*51
1497474362.53,57427,18.38,73912.3,-2.41,-32.35,-32.75,0,*50
1497474363.8,57428,18.38,73918.0,-2.41,-32.07,-32.69,0,*53
1497474365.03,57429,18.38,73918.8,-2.41,-32.23,-32.69,0,*54
1497474366.26,57430,18.38,73916.8,-2.41,-32.23,-32.69,0,*5C
1497474367.51,57431,18.38,73916.0,-2.41,-32.01,-32.51,0,*56
1497474368.75,57432,18.38,73916.3,-2.39,-32.19,-32.69,0,*58
1497474370.01,57433,18.38,73916.5,-2.41,-32.35,-32.85,0,*5A
1497474371.26,57434,18.38,73922.0,-2.41,-32.35,-32.85,0,*5D
1497474372.55,57435,18.38,73920.8,-2.41,-32.19,-32.75,0,*5D
1497474373.81,57436,18.38,73918.5,-2.41,-32.35,-32.85,0,*5F
1497474375.07,57437,18.38,73926.8,-2.41,-32.23,-32.85,0,*59
1497474376.28,57438,18.38,73930.0,-2.39,-31.79,-32.35,0,*5E
1497474377.54,57439,18.31,73920.0,-2.43,-32.07,-32.63,0,*5B
1497474378.78,57440,18.38,73926.3,-2.41,-31.79,-32.35,0,*5E
1497474380.01,57441,18.38,73924.3,-2.41,-31.33,-32.01,0,*56
1497474381.22,57442,18.38,73922.3,-2.39,-31.33,-31.79,0,*56
1497474382.49,57443,18.31,73920.3,-2.39,-31.51,-32.19,0,*56
1497474383.77,57444,18.38,73922.0,-2.41,-31.61,-32.19,0,*5D
1497474385.02,57445,18.38,73922.5,-2.39,-31.85,-32.23,0,*50
1497474386.31,57446,18.38,73922.5,-2.41,-31.61,-32.07,0,*50
1497474387.52,57447,18.38,73920.3,-2.39,-31.79,-32.35,0,*56
1497474388.81,57448,18.38,73916.8,-2.37,-31.57,-32.19,0,*55
1497474390.08,57449,18.38,73916.3,-2.37,-31.57,-32.13,0,*5E
1497474391.33,57450,18.38,73922.0,-2.37,-31.39,-32.01,0,*5D
1497474392.57,57451,18.38,73924.3,-2.37,-31.45,-32.13,0,*54
1497474393.81,57452,18.38,73922.0,-2.35,-31.33,-31.95,0,*59
1497474395.1,57453,18.38,73914.8,-2.33,-31.51,-32.07,0,*52
1497474396.34,57454,18.38,73914.5,-2.35,-31.79,-32.45,0,*5F
1497474397.57,57455,18.38,73910.3,-2.35,-32.13,-32.75,0,*52
1497474398.86,57456,18.38,73912.8,-2.37,-31.95,-32.63,0,*59
1497474400.13,57457,18.38,73914.3,-2.35,-32.07,-32.63,0,*52
1497474401.39,57458,18.38,73910.3,-2.35,-32.07,-32.63,0,*5D
1497474402.65,57459,18.38,73906.8,-2.35,-31.91,-32.45,0,*54
1497474403.92,57460,18.38,73904.3,-2.35,-32.07,-32.79,0,*5D
1497474405.15,57461,18.38,73906.5,-2.35,-32.13,-32.79,0,*59
1497474406.42,57462,18.38,73904.0,-2.37,-32.13,-32.79,0,*58
1497474407.69,57463,18.38,73900.5,-2.35,-32.07,-32.75,0,*52
1497474408.95,57464,18.38,73906.3,-2.35,-31.95,-32.63,0,*5A
1497474410.21,57465,18.38,73904.8,-2.35,-31.91,-32.45,0,*5B
1497474411.47,57466,18.38,73904.5,-2.35,-31.95,-32.63,0,*58
1497474412.68,57467,18.38,73904.0,-2.35,-31.79,-32.57,0,*5C
1497474413.92,57468,18.31,73908.0,-2.35,-31.79,-32.45,0,*50
1497474415.15,57469,18.38,73910.0,-2.35,-32.13,-32.79,0,*51
1497474416.42,57470,18.38,73912.8,-2.35,-32.07,-32.75,0,*50
1497474417.68,57471,18.38,73916.0,-2.37,-32.13,-32.97,0,*5A
1497474418.89,57472,18.38,73914.8,-2.35,-32.13,-32.91,0,*5D
1497474420.16,57473,18.38,73916.3,-2.37,-31.95,-32.69,0,*54
1497474421.45,57474,18.38,73914.5,-2.33,-31.39,-31.95,0,*51
1497474422.71,57475,18.38,73914.0,-2.35,-31.57,-32.29,0,*5A
1497474423.94,57476,18.38,73916.5,-2.35,-31.51,-32.13,0,*56
1497474425.2,57477,18.38,73920.5,-2.35,-31.39,-32.07,0,*5C
1497474426.43,57478,18.38,73922.8,-2.35,-31.05,-31.73,0,*5C
1497474427.67,57479,18.38,73918.0,-2.35,-30.83,-31.51,0,*52
1497474428.96,57480,18.38,73914.0,-2.33,-31.23,-31.91,0,*55
1497474430.19,57481,18.38,73908.3,-2.31,-31.51,-32.23,0,*59
1497474431.46,57482,18.38,73920.0,-2.31,-31.51,-32.19,0,*53
1497474432.7,57483,18.38,73918.0,-2.31,-31.45,-32.07,0,*58
1497474433.94,57484,18.38,73916.5,-2.31,-31.33,-31.91,0,*52
1497474435.19,57485,18.38,73916.5,-2.31,-31.45,-32.19,0,*51
1497474436.42,57486,18.38,73912.0,-2.29,-31.45,-32.23,0,*52
1497474437.69,57487,18.38,73914.8,-2.29,-31.61,-32.39,0,*5E
1497474438.93,57488,18.38,73914.0,-2.29,-31.67,-32.51,0,*59
1497474440.16,57489,18.38,73916.0,-2.29,-31.67,-32.51,0,*58
1497474441.38,57490,18.38,73916.3,-2.27,-31.67,-32.51,0,*5E
1497474442.62,57491,18.38,73918.3,-2.31,-31.45,-32.19,0,*54
1497474443.86,57492,18.38,73916.8,-2.29,-31.45,-32.23,0,*57
1497474445.1,57493,18.38,73918.0,-2.29,-31.45,-32.23,0,*56
1497474446.35,57494,18.31,73914.8,-2.29,-31.51,-32.23,0,*54
1497474447.59,57495,18.38,73918.3,-2.29,-31.67,-32.51,0,*55
1497474448.84,57496,18.38,73916.0,-2.29,-31.85,-32.57,0,*5C
1497474450.08,57497,18.31,73914.5,-2.29,-31.67,-32.51,0,*57
1497474451.32,57498,18.38,73918.0,-2.29,-31.67,-32.51,0,*58
1497474452.61,57499,18.38,73916.5,-2.29,-31.85,-32.75,0,*53
1497474453.88,57500,18.38,73914.3,-2.29,-32.01,-32.85,0,*52
1497474455.15,57501,18.38,73916.0,-2.29,-32.01,-32.75,0,*5C
1497474456.4,57502,18.38,73914.0,-2.29,-31.91,-32.57,0,*55
1497474457.64,57503,18.38,73912.0,-2.31,-31.61,-32.35,0,*56
1497474458.91,57504,18.38,73912.0,-2.29,-32.01,-32.85,0,*56
1497474460.13,57505,18.38,73914.3,-2.29,-31.67,-32.57,0,*5B
1497474461.42,57506,18.31,73910.0,-2.29,-31.85,-32.75,0,*54
1497474462.69,57507,18.38,73914.5,-2.33,-31.95,-32.91,0,*55
1497474463.93,57508,18.38,73912.5,-2.31,-31.51,-32.35,0,*5E
1497474465.19,57509,18.38,73912.5,-2.29,-31.61,-32.51,0,*57
1497474466.43,57510,18.38,73916.3,-2.31,-32.01,-32.97,0,*59
1497474467.67,57511,18.31,73914.5,-2.31,-32.01,-32.97,0,*58
1497474468.94,57512,18.38,73914.3,-2.31,-31.91,-32.75,0,*5D
1497474470.18,57513,18.38,73914.3,-2.31,-31.51,-32.51,0,*56
1497474471.42,57514,18.38,73914.3,-2.31,-31.73,-32.57,0,*57
1497474472.63,57515,18.38,73914.3,-2.31,-31.33,-32.23,0,*51
1497474473.88,57516,18.38,73910.8,-2.31,-31.61,-32.51,0,*50
1497474475.14,57517,18.38,73914.3,-2.29,-31.51,-32.39,0,*55
1497474476.4,57518,18.31,73912.0,-2.29,-31.51,-32.39,0,*5A
1497474477.61,57519,18.38,73912.3,-2.31,-31.33,-32.23,0,*5D
1497474478.87,57520,18.38,73912.0,-2.29,-31.51,-32.51,0,*5F
1497474480.13,57521,18.38,73916.0,-2.29,-31.51,-32.39,0,*50
1497474481.37,57522,18.38,73912.0,-2.31,-31.61,-32.57,0,*51
1497474482.61,57523,18.38,73908.5,-2.31,-31.61,-32.57,0,*50
1497474483.85,57524,18.38,73912.3,-2.31,-31.51,-32.51,0,*52
1497474485.09,57525,18.38,73910.0,-2.29,-31.45,-32.39,0,*51
1497474486.33,57526,18.38,73910.5,-2.31,-31.11,-32.01,0,*51
1497474487.54,57527,18.38,73910.5,-2.31,-31.33,-32.23,0,*50
1497474488.83,57528,18.38,73906.3,-2.29,-31.11,-31.91,0,*5C
1497474490.09,57529,18.38,73908.0,-2.29,-31.29,-32.07,0,*5A
1497474491.31,57530,18.38,73912.3,-2.27,-31.45,-32.39,0,*5B
1497474492.54,57531,18.38,73916.5,-2.29,-31.45,-32.35,0,*58
1497474493.78,57532,18.38,73914.5,-2.27,-31.11,-32.01,0,*53
1497474495.04,57533,18.38,73914.0,-2.29,-31.01,-31.95,0,*53
1497474496.27,57534,18.38,73910.0,-2.27,-30.77,-31.79,0,*58
1497474497.53,57535,18.38,73908.8,-2.27,-30.95,-31.85,0,*56